Regional Weather Roundup
Issued by NWS

Home | Current Version | Previous Version | Graphics & Text | Print | Product List | Glossary On
Versions: 1 2 3 4 5 6 7 8 9 10 11 12 13 14 15 16 17 18 19 20 21 22 23 24 25 26 27 28 29 30 31 32 33 34 35 36 37 38 39 40 41 42 43 44 45 46 47 48 49 50
000
ASUS43 KLOT 141203
RWRIL

ILLINOIS REGIONAL WEATHER ROUNDUP
NATIONAL WEATHER SERVICE CHICAGO/ROMEOVILLE IL
600 AM CST SUN FEB 14 2016

NOTE: "FAIR" INDICATES FEW OR NO CLOUDS BELOW 12,000 FEET WITH NO
SIGNIFICANT WEATHER AND/OR OBSTRUCTIONS TO VISIBILITY.

* THESE STATIONS ARE NOT UNDER NWS QUALITY CONTROL. THEY ALSO MAY NOT
  REPORT WEATHER SUCH AS PRECIPITATION OR FOG.

ILZ001-002-007-009-015-016-024-141300-
NORTHWEST ILLINOIS

CITY           SKY/WX    TMP DP  RH WIND       PRES   REMARKS
MOLINE         LGT SNOW  17  11  77 SE14      30.24F WCI   3
6HR MIN TEMP:  17; 6HR MAX TEMP:  19; 6HR PCP:  0.01;

STERLING*      CLOUDY    16   9  73 SE13      30.25F WCI   2
$$

ILZ003-004-008-010-011-017-018-141300-
NORTH CENTRAL ILLINOIS

CITY           SKY/WX    TMP DP  RH WIND       PRES   REMARKS
ROCKFORD       CLOUDY    15   3  59 SE10      30.32F WCI   2
6HR MIN TEMP:  11; 6HR MAX TEMP:  15;

FREEPORT*      CLOUDY    13   6  70 SE15      30.29F WCI  -2
DE KALB*       CLOUDY    14   4  67 SE13      30.32F WCI  -1
$$

ILZ005-006-012>014-019>023-141300-
NORTHEAST ILLINOIS

CITY           SKY/WX    TMP DP  RH WIND       PRES   REMARKS
CHICAGO-OHARE  CLOUDY    14   2  58 SE10      30.36F WCI   1
6HR MIN TEMP:   9; 6HR MAX TEMP:  14;

CHICAGO-MIDWAY CLOUDY    15   0  51 SE12      30.38F WCI   2
6HR MIN TEMP:  13; 6HR MAX TEMP:  15;

AURORA         CLOUDY    15   4  61 SE12      30.35F WCI   2
6HR MIN TEMP:  12; 6HR MAX TEMP:  15;

WAUKEGAN       PTCLDY    10   0  63 S7        30.36F WCI  -1
6HR MIN TEMP:   2; 6HR MAX TEMP:  10;

DUPAGE AIRPORT PTCLDY    13   0  56 SE10      30.33F WCI   0
6HR MIN TEMP:  10; 6HR MAX TEMP:  14;

WHEELING       PTCLDY    13   2  61 SE9       30.38F WCI   1
6HR MIN TEMP:   7; 6HR MAX TEMP:  13;

NORTHERLY ISL    N/A     15   2  56 S12         N/A  WCI   2
$$

LMZ740>746-141300-
SOUTHERN LAKE MICHIGAN

STATION/POSITION SKY/WX   TEMP    WIND        PRES    VSBY  WAVE
                          AIR SEA DIR/SP/G                  HT/PER
                          (F)     (DEG/KT/KT) (MB)    (MI)  (FT/S)
HARRISON CRIB              16     170/ 18/ 22   N/A
BURNHAM HARBOR             15     160/ 11/ 15   N/A
CALUMET HARBOR             13     150/  8/ 12 1029.0F
BURNS HARBOR               12     150/  7/ 16 1030.8S
MICHIGAN CITY               9     140/  9/ 11   N/A
$$

ILZ025>027-034>036-040-047-049-050-058-095>099-141300-
WEST-CENTRAL ILLINOIS

CITY           SKY/WX    TMP DP  RH WIND       PRES   REMARKS
QUINCY         CLOUDY    20  11  68 SE21      30.15F WCI   4
MACOMB*        CLOUDY    17  14  91 SE20      30.23F WCI   0
$$

ILZ028>032-037-038-041>044-048-051>054-059>061-141300-
CENTRAL ILLINOIS

CITY           SKY/WX    TMP DP  RH WIND       PRES   REMARKS
BLOOMINGTON    FLURRIES  15  11  84 SE15      30.30F WCI   0
DECATUR        CLOUDY    16  10  77 SE18      30.31F WCI   0
PEORIA         CLOUDY    16  10  77 SE14G23   30.28F WCI   2
6HR MIN TEMP:  16; 6HR MAX TEMP:  19; 6HR PCP:  0.05;

LINCOLN*       CLOUDY    17  13  86 SE9G18    30.30F WCI   5
SPRINGFIELD    CLOUDY    18  13  80 SE16      30.27F WCI   3
6HR MIN TEMP:  18; 6HR MAX TEMP:  20; 6HR PCP:  0.05;

TAYLORVILLE    NOT AVBL
$$

ILZ033-039-045-046-055>057-062-063-141300-
EAST-CENTRAL ILLINOIS

CITY           SKY/WX    TMP DP  RH WIND       PRES   REMARKS
CHAMPAIGN      CLOUDY    15  11  83 SE17      30.35F WCI  -1
MATTOON        LGT SNOW  15  11  83 SE10      30.35F FOG     WCI   2
$$

ILZ079-100>102-141300-
SOUTHWEST ILLINOIS

CITY           SKY/WX    TMP DP  RH WIND       PRES   REMARKS
ALTON          CLOUDY    21   9  60 SE15      30.25F WCI   8
BELLEVILLE     CLOUDY    22  13  68 SE14      30.26F WCI   9
CAHOKIA*       CLOUDY    23  11  60 SE14      30.27S WCI  11
SPARTA*        CLOUDY    22  13  67 SE12      30.29R WCI  10
$$

ILZ064>066-069>071-074>076-080>082-084>086-088>090-092>094-141300-
SOUTH-CENTRAL ILLINOIS

CITY           SKY/WX    TMP DP  RH WIND       PRES   REMARKS
CARBONDALE     CLOUDY    23  10  57 E12       30.29F WCI  12
6HR MIN TEMP:  23; 6HR MAX TEMP:  23; 6HR PCP: TRACE;

MARION         CLOUDY    23  14  68 E10G17    30.30F WCI  12
MT. VERNON     CLOUDY    21   7  53 E12       30.32F WCI   9
CENTRALIA*     CLOUDY    22  10  59 E8G17     30.30F WCI  13
SALEM*         CLOUDY    23   8  52 E7        30.32F WCI  14
$$

ILZ067-068-072-073-078-083-087-091-141300-
SOUTHEAST ILLINOIS

CITY           SKY/WX    TMP DP  RH WIND       PRES   REMARKS
LAWRENCEVILLE  CLOUDY    19  12  74 E13       30.40F WCI   6
HARRISBURG*    CLOUDY    21  18  88 E15       30.34F WCI   8
$$

ABBREVIATIONS USED IN REMARKS
   TC - TEMPERATURE IN CELSIUS
  WCI - WIND CHILL INDEX
   HX - HEAT INDEX
  VSB - VISIBILITY
$$




USA.gov is the U.S. government's official web portal to all federal, state and local government web resources and services.